Tracking 24122 objects as of 7-Dec-2021
HD Live streaming from Space Station
objects crossing your sky now

PEGASUS DEB

Track PEGASUS DEB now!
10-day predictions


NORAD ID: 24594
Int'l Code: 1994-029YW
Perigee: 550.8 km
Apogee: 1,318.2 km
Inclination: 81.5 °
Period: 103.6 minutes
Semi major axis: 7305 km
RCS: 0.0131 m2 (small)
Launch date: May 19, 1994
Source: United States (US)
Launch site: AIR FORCE WESTERN TEST RANGE (AFWTR)

Note: This is SATELLITE DEBRIS
aabbcc
Your satellite tracking list
Your tracking list is empty




NASA's NSSDC Master Catalog

Two Line Element Set (TLE):
1 24594U 94029YW  21340.62382206  .00001464  00000-0  37632-3 0  9996
2 24594  81.4690 108.5941 0525249 299.0015  67.8207 13.90356121276494
Source of the keplerian elements: AFSPC